Time,TemperatureF,DewpointF,PressureIn,WindDirection,WindDirectionDegrees,WindSpeedMPH,WindSpeedGustMPH,Humidity,HourlyPrecipIn,Conditions,Clouds,dailyrainin,SoftwareType,DateUTC
2013-08-14 00:12:00,52.0,46.0,30.09,ENE,72,0.0,1.0,81,0.00,,,0.00,,2013-08-14 05:12:00,
2013-08-14 00:22:00,52.0,46.0,30.09,ENE,72,0.0,1.0,80,0.00,,,0.00,,2013-08-14 05:22:00,
2013-08-14 00:42:00,51.0,46.0,30.09,SSW,198,0.0,1.0,84,0.00,,,0.00,,2013-08-14 05:42:00,
2013-08-14 00:51:00,50.0,45.0,30.10,WSW,242,1.0,2.0,83,0.00,,,0.00,,2013-08-14 05:51:00,
2013-08-14 01:11:00,48.0,44.0,30.10,SSW,210,0.0,2.0,86,0.00,,,0.00,,2013-08-14 06:11:00,
2013-08-14 01:21:00,48.0,44.0,30.09,SSW,210,1.0,2.0,87,0.00,,,0.00,,2013-08-14 06:21:00,
2013-08-14 01:42:00,48.0,45.0,30.10,SW,219,0.0,1.0,88,0.00,,,0.00,,2013-08-14 06:42:00,
2013-08-14 01:52:00,47.0,43.0,30.10,SW,221,0.0,2.0,87,0.00,,,0.00,,2013-08-14 06:52:00,
2013-08-14 02:11:00,48.0,44.0,30.10,WSW,253,0.0,2.0,87,0.00,,,0.00,,2013-08-14 07:11:00,
2013-08-14 02:21:00,49.0,45.0,30.10,SW,218,0.0,1.0,85,0.00,,,0.00,,2013-08-14 07:21:00,
2013-08-14 02:42:00,49.0,44.0,30.10,WSW,255,0.0,1.0,84,0.00,,,0.00,,2013-08-14 07:42:00,
2013-08-14 02:52:00,48.0,44.0,30.10,SW,221,0.0,2.0,85,0.00,,,0.00,,2013-08-14 07:52:00,
2013-08-14 03:11:00,48.0,44.0,30.10,SW,221,0.0,0.0,87,0.00,,,0.00,,2013-08-14 08:11:00,
2013-08-14 03:21:00,47.0,43.0,30.10,SW,221,0.0,0.0,87,0.00,,,0.00,,2013-08-14 08:21:00,
2013-08-14 03:31:00,47.0,43.0,30.10,SW,221,0.0,0.0,87,0.00,,,0.00,,2013-08-14 08:31:00,
2013-08-14 03:42:00,47.0,43.0,30.10,SW,221,0.0,0.0,87,0.00,,,0.00,,2013-08-14 08:42:00,
2013-08-14 03:52:00,46.0,42.0,30.10,SW,221,0.0,0.0,87,0.00,,,0.00,,2013-08-14 08:52:00,
2013-08-14 04:11:00,46.0,43.0,30.11,WSW,253,0.0,1.0,89,0.00,,,0.00,,2013-08-14 09:11:00,
2013-08-14 04:21:00,46.0,42.0,30.10,West,269,0.0,1.0,87,0.00,,,0.00,,2013-08-14 09:21:00,
2013-08-14 04:43:00,45.0,42.0,30.11,West,269,0.0,0.0,89,0.00,,,0.00,,2013-08-14 09:43:00,
2013-08-14 04:53:00,45.0,42.0,30.11,West,268,0.0,0.0,89,0.00,,,0.00,,2013-08-14 09:53:00,
2013-08-14 05:12:00,44.0,41.0,30.11,West,268,0.0,0.0,90,0.00,,,0.00,,2013-08-14 10:12:00,
2013-08-14 05:23:00,44.0,41.0,30.11,West,264,0.0,1.0,90,0.00,,,0.00,,2013-08-14 10:23:00,
2013-08-14 05:42:00,44.0,41.0,30.10,SSE,149,0.0,1.0,90,0.00,,,0.00,,2013-08-14 10:42:00,
2013-08-14 05:52:00,44.0,42.0,30.10,West,270,0.0,1.0,91,0.00,,,0.00,,2013-08-14 10:52:00,
2013-08-14 06:11:00,42.0,40.0,30.10,West,269,0.0,0.0,91,0.00,,,0.00,,2013-08-14 11:11:00,
2013-08-14 06:21:00,42.0,40.0,30.10,SSW,212,0.0,1.0,92,0.00,,,0.00,,2013-08-14 11:21:00,
2013-08-14 06:42:00,43.0,41.0,30.10,SW,235,0.0,1.0,92,0.00,,,0.00,,2013-08-14 11:42:00,
2013-08-14 06:52:00,42.0,40.0,30.10,SW,235,0.0,0.0,92,0.00,,,0.00,,2013-08-14 11:52:00,
2013-08-14 07:11:00,42.0,40.0,30.10,SW,235,0.0,0.0,92,0.00,,,0.00,,2013-08-14 12:11:00,
2013-08-14 07:21:00,43.0,41.0,30.10,SSW,206,0.0,1.0,92,0.00,,,0.00,,2013-08-14 12:21:00,
2013-08-14 07:42:00,44.0,42.0,30.10,SW,217,0.0,1.0,92,0.00,,,0.00,,2013-08-14 12:42:00,
2013-08-14 07:52:00,44.0,42.0,30.10,SW,217,0.0,1.0,92,0.00,,,0.00,,2013-08-14 12:52:00,
2013-08-14 08:11:00,47.0,45.0,30.10,WNW,283,0.0,2.0,91,0.00,,,0.00,,2013-08-14 13:11:00,
2013-08-14 08:22:00,49.0,46.0,30.10,WNW,302,0.0,2.0,89,0.00,,,0.00,,2013-08-14 13:22:00,
2013-08-14 08:52:00,53.0,48.0,30.10,West,280,0.0,3.0,84,0.00,,,0.00,,2013-08-14 13:52:00,
2013-08-14 09:11:00,55.0,49.0,30.10,WNW,300,1.0,3.0,80,0.00,,,0.00,,2013-08-14 14:11:00,
2013-08-14 09:21:00,55.0,49.0,30.10,WNW,300,1.0,3.0,80,0.00,,,0.00,,2013-08-14 14:21:00,
2013-08-14 09:42:00,61.0,50.0,30.10,NW,326,0.0,2.0,68,0.00,,,0.00,,2013-08-14 14:42:00,
2013-08-14 09:52:00,64.0,52.0,30.10,NNW,345,0.0,1.0,64,0.00,,,0.00,,2013-08-14 14:52:00,
2013-08-14 10:11:00,64.0,52.0,30.10,ENE,62,0.0,2.0,64,0.00,,,0.00,,2013-08-14 15:11:00,
2013-08-14 10:22:00,64.0,52.0,30.10,ENE,62,0.0,2.0,64,0.00,,,0.00,,2013-08-14 15:22:00,
2013-08-14 10:33:00,64.0,52.0,30.10,ENE,62,0.0,2.0,64,0.00,,,0.00,,2013-08-14 15:33:00,
2013-08-14 10:57:00,69.0,52.0,30.09,SW,232,1.0,2.0,54,0.00,,,0.00,,2013-08-14 15:57:00,
2013-08-14 11:13:00,69.0,50.0,30.09,WNW,302,2.0,5.0,51,0.00,,,0.00,,2013-08-14 16:13:00,
2013-08-14 11:27:00,69.0,50.0,30.09,WNW,284,2.0,4.0,51,0.00,,,0.00,,2013-08-14 16:27:00,
2013-08-14 11:43:00,71.0,52.0,30.09,South,179,2.0,3.0,52,0.00,,,0.00,,2013-08-14 16:43:00,
2013-08-14 11:59:00,73.0,53.0,30.09,SSW,200,2.0,7.0,49,0.00,,,0.00,,2013-08-14 16:59:00,
2013-08-14 12:20:00,72.0,50.0,30.08,WNW,287,2.0,8.0,46,0.00,,,0.00,,2013-08-14 17:20:00,
2013-08-14 12:29:00,74.0,49.0,30.08,SW,218,1.0,5.0,42,0.00,,,0.00,,2013-08-14 17:29:00,
2013-08-14 12:36:00,74.0,49.0,30.08,SW,218,1.0,5.0,42,0.00,,,0.00,,2013-08-14 17:36:00,
2013-08-14 12:44:00,74.0,49.0,30.08,SW,218,1.0,5.0,42,0.00,,,0.00,,2013-08-14 17:44:00,
2013-08-14 12:55:00,74.0,48.0,30.07,WNW,295,3.0,8.0,40,0.00,,,0.00,,2013-08-14 17:55:00,
2013-08-14 13:27:00,74.0,-99.9,30.06,SSW,206,2.0,6.0,40,0.00,,,0.00,,2013-08-14 18:27:00,
2013-08-14 13:34:00,75.0,52.0,30.06,WSW,256,5.0,7.0,44,0.00,,,0.00,,2013-08-14 18:34:00,
2013-08-14 13:59:00,-999.0,-99.9,30.05,West,273,4.0,10.0,-999,-99.99,,,-99.99,,2013-08-14 18:59:00,
2013-08-14 14:13:00,76.0,50.0,30.04,SSW,200,1.0,8.0,40,0.00,,,0.00,,2013-08-14 19:13:00,
2013-08-14 14:31:00,76.0,51.0,30.04,WNW,283,3.0,10.0,41,0.00,,,0.00,,2013-08-14 19:31:00,
2013-08-14 14:42:00,76.0,49.0,30.03,West,267,3.0,8.0,38,0.00,,,0.00,,2013-08-14 19:42:00,
2013-08-14 14:54:00,76.0,50.0,30.03,WNW,296,1.0,5.0,40,0.00,,,0.00,,2013-08-14 19:54:00,
2013-08-14 15:12:00,76.0,48.0,30.03,SSE,150,2.0,8.0,37,0.00,,,0.00,,2013-08-14 20:12:00,
2013-08-14 15:49:00,77.0,48.0,30.02,WSW,238,2.0,6.0,36,0.00,,,0.00,,2013-08-14 20:49:00,
2013-08-14 16:13:00,76.0,50.0,30.02,NNE,21,2.0,7.0,40,0.00,,,0.00,,2013-08-14 21:13:00,
2013-08-14 16:24:00,76.0,50.0,30.01,North,349,1.0,7.0,40,0.00,,,0.00,,2013-08-14 21:24:00,
2013-08-14 16:45:00,76.0,50.0,30.01,WNW,297,3.0,7.0,40,0.00,,,0.00,,2013-08-14 21:45:00,
2013-08-14 16:55:00,76.0,51.0,30.01,SSE,152,3.0,5.0,41,0.00,,,0.00,,2013-08-14 21:55:00,
2013-08-14 17:13:00,78.0,52.0,30.01,NNE,32,4.0,7.0,40,0.00,,,0.00,,2013-08-14 22:13:00,
2013-08-14 17:23:00,78.0,50.0,30.00,SE,132,1.0,6.0,37,0.00,,,0.00,,2013-08-14 22:23:00,
2013-08-14 17:54:00,79.0,50.0,30.00,West,263,4.0,7.0,37,0.00,,,0.00,,2013-08-14 22:54:00,
2013-08-14 18:13:00,78.0,50.0,29.99,SW,218,1.0,5.0,38,0.00,,,0.00,,2013-08-14 23:13:00,
2013-08-14 18:25:00,77.0,51.0,29.99,SSW,195,3.0,6.0,40,0.00,,,0.00,,2013-08-14 23:25:00,
2013-08-14 18:46:00,77.0,52.0,29.99,SW,233,4.0,9.0,42,0.00,,,0.00,,2013-08-14 23:46:00,
2013-08-14 18:56:00,75.0,52.0,29.99,SW,222,3.0,8.0,45,0.00,,,0.00,,2013-08-14 23:56:00,
2013-08-14 19:12:00,75.0,52.0,29.99,WSW,252,3.0,8.0,45,0.00,,,0.00,,2013-08-15 00:12:00,
2013-08-14 19:23:00,75.0,52.0,29.99,WSW,246,4.0,7.0,44,0.00,,,0.00,,2013-08-15 00:23:00,
2013-08-14 19:43:00,75.0,52.0,29.98,West,281,2.0,6.0,45,0.00,,,0.00,,2013-08-15 00:43:00,
2013-08-14 19:52:00,75.0,56.0,29.98,SSW,200,1.0,3.0,51,0.00,,,0.00,,2013-08-15 00:52:00,
2013-08-14 20:16:00,75.0,56.0,29.98,SSW,195,1.0,2.0,51,0.00,,,0.00,,2013-08-15 01:16:00,
2013-08-14 20:22:00,73.0,55.0,29.97,SSW,195,0.0,1.0,53,0.00,,,0.00,,2013-08-15 01:22:00,
2013-08-14 20:42:00,71.0,55.0,29.97,SSW,195,0.0,0.0,57,0.00,,,0.00,,2013-08-15 01:42:00,
2013-08-14 20:52:00,70.0,55.0,29.97,SSE,156,0.0,1.0,58,0.00,,,0.00,,2013-08-15 01:52:00,
2013-08-14 21:11:00,68.0,54.0,29.97,SSE,156,0.0,1.0,61,0.00,,,0.00,,2013-08-15 02:11:00,
2013-08-14 21:21:00,66.0,53.0,29.98,East,96,0.0,1.0,63,0.00,,,0.00,,2013-08-15 02:21:00,
2013-08-14 22:11:00,63.0,53.0,29.99,North,8,0.0,0.0,69,0.00,,,0.00,,2013-08-15 03:11:00,
2013-08-14 22:22:00,61.0,52.0,29.99,North,8,0.0,0.0,72,0.00,,,0.00,,2013-08-15 03:22:00,
2013-08-14 22:53:00,59.0,51.0,29.99,SW,216,0.0,2.0,76,0.00,,,0.00,,2013-08-15 03:53:00,
2013-08-14 23:12:00,58.0,52.0,29.99,SW,215,0.0,0.0,79,0.00,,,0.00,,2013-08-15 04:12:00,
2013-08-14 23:23:00,58.0,52.0,29.99,SW,215,0.0,0.0,79,0.00,,,0.00,,2013-08-15 04:23:00,
2013-08-14 23:43:00,55.0,50.0,29.99,SW,215,0.0,0.0,84,0.00,,,0.00,,2013-08-15 04:43:00,
2013-08-14 23:52:00,55.0,51.0,29.99,SW,215,0.0,0.0,87,0.00,,,0.00,,2013-08-15 04:52:00,